sat.trackr.live / text

‹ back to catalog

STARLINK-34352

NORAD 64257 · 2025-120B

PAYLOAD ACTIVE UNKNOWN

§ Identity

Operator
Country
US
Launch date
2025-06-04
Launch site
AFWTR
Launch vehicle
Mass (kg)
RCS (m²)

Purposes: comms

External: N2YO · Heavens-Above · Gunter

§ Orbital elements

Epoch: 2026-05-25T05:25:36.323040Z

Period
94.11 min
Inclination
53.1571°
Eccentricity
0.0001381
Mean motion
15.30203170 rev/d
Perigee alt
474.3 km
Apogee alt
476.2 km
Semi-major
6,853.3 km
B*
9.2277e-4
RAAN
121.2298°
Arg perigee
88.3198°
Mean anomaly
271.7961°
Rev number
5,558

§ Raw data

STARLINK-343521 64257U 25120B   26145.22611485  .00027073  00000+0  92277-3 0  99992 64257  53.1571 121.2298 0001381  88.3198 271.7961 15.30203170 55581

JSON: /api/v1/satellites/64257 · /tle

For live sub-satellite position, see the globe view (requires WebGL).

§ Visibility from observer

Set your observer location to see the next 7 days of passes ≥ 10°. The values pass through the URL so the page stays shareable.

No JS? Fill the form by hand. The geolocation button needs JavaScript.